Tracking 19224 objects as of 22-Jul-2018
HD Live streaming from Space Station
objects crossing your sky now

FENGYUN 1C DEB

Track FENGYUN 1C DEB now!
10-day predictions


NORAD ID: 30561
Int'l Code: 1999-025ALB
Perigee: 826.4 km
Apogee: 916.7 km
Inclination: 98.9 °
Period: 102.2 minutes
Semi major axis: 7242 km
RCS: 0.0205 m2 (small)
Launch date: May 10, 1999
Source: People's Republic of China (PRC)
Launch site: Taiyaun Space Center, China (TSC)

Note: This is SATELLITE DEBRIS
aabbcc
Your satellite tracking list
Your tracking list is empty




NASA's NSSDC Master Catalog

Two Line Element Set (TLE):
1 30561U 99025ALB 18202.59548868 +.00000056 +00000-0 +57236-4 0  9994
2 30561 098.9070 233.1020 0062336 181.8298 331.6461 14.08518555589310
Source of the keplerian elements: AFSPC